| time (UTC) | temp C | wind direction | speed KPH | gust KPH | rain 1hr cm | rain 24hr cm | rain mn cm | humidity % | barometer mb |
| 20260506034606 | 16 | 225 | 0.0 | 0.0 | 0.00 | 0.00 | 0.00 | 68 | 1014.8 |
| 20260506034101 | 17 | 248 | 0.0 | 0.0 | 0.00 | 0.00 | 0.00 | 67 | 1014.8 |
| 20260506033551 | 17 | 270 | 0.0 | 0.0 | 0.00 | 0.00 | 0.00 | 68 | 1014.6 |
| 20260506033048 | 17 | 225 | 0.0 | 0.0 | 0.00 | 0.00 | 0.00 | 66 | 1014.6 |
| 20260506031022 | 18 | 225 | 0.0 | 0.0 | 0.00 | 0.00 | 0.00 | 67 | 1014.2 |
| 20260506030516 | 18 | 225 | 0.0 | 0.0 | 0.00 | 0.00 | 0.00 | 65 | 1014.2 |
| 20260506030012 | 18 | 248 | 0.0 | 0.0 | 0.00 | 0.00 | 0.00 | 65 | 1013.9 |
| 20260506025508 | 19 | 248 | 0.0 | 0.0 | 0.00 | 0.00 | 0.00 | 64 | 1013.9 |
| 20260506025001 | 20 | 203 | 0.0 | 0.0 | 0.00 | 0.00 | 0.00 | 62 | 1013.9 |
| 20260506024453 | 20 | 203 | 0.0 | 0.0 | 0.00 | 0.00 | 0.00 | 62 | 1013.7 |
| 20260506023947 | 20 | 225 | 0.0 | 0.0 | 0.00 | 0.00 | 0.00 | 62 | 1013.7 |
| 20260506022432 | 21 | 248 | 0.0 | 0.0 | 0.00 | 0.00 | 0.00 | 57 | 1013.6 |
| 20260506021921 | 21 | 248 | 0.0 | 0.0 | 0.00 | 0.00 | 0.00 | 57 | 1013.6 |
| 20260506021419 | 22 | 23 | 0.0 | 0.0 | 0.00 | 0.00 | 0.00 | 51 | 1013.6 |
| 20260506014309 | 23 | 23 | 1.6 | 1.6 | 0.00 | 0.00 | 0.00 | 49 | 1013.4 |
| 20260506013758 | 23 | 90 | 1.6 | 1.6 | 0.00 | 0.00 | 0.00 | 50 | 1013.4 |
| 20260506013252 | 23 | 338 | 0.0 | 0.0 | 0.00 | 0.00 | 0.00 | 49 | 1013.2 |
| 20260506012747 | 23 | 90 | 0.0 | 0.0 | 0.00 | 0.00 | 0.00 | 48 | 1013.2 |
| 20260506011727 | 26 | 225 | 0.0 | 0.0 | 0.00 | 0.00 | 0.00 | 47 | 1013.2 |
| 20260505214621 | 26 | 180 | 1.6 | 1.6 | 0.00 | 0.00 | 0.00 | 48 | 1014.3 |
| 20260505213611 | 25 | 158 | 1.6 | 1.6 | 0.00 | 0.00 | 0.00 | 50 | 1014.4 |
| 20260505213106 | 26 | 113 | 1.6 | 1.6 | 0.00 | 0.00 | 0.00 | 50 | 1014.4 |
| 20260505212601 | 26 | 270 | 1.6 | 1.6 | 0.00 | 0.00 | 0.00 | 49 | 1014.4 |
| 20260505212056 | 25 | 270 | 3.2 | 3.2 | 0.00 | 0.00 | 0.00 | 51 | 1014.5 |
| 20260505210912 | 26 | 45 | 1.6 | 1.6 | 0.00 | 0.00 | 0.00 | 53 | 1014.6 |
| 20260505210407 | 25 | 68 | 1.6 | 1.6 | 0.00 | 0.00 | 0.00 | 52 | 1014.6 |
| 20260505205352 | 24 | 135 | 3.2 | 3.2 | 0.00 | 0.00 | 0.00 | 53 | 1014.8 |
| 20260505204847 | 25 | 135 | 1.6 | 1.6 | 0.00 | 0.00 | 0.00 | 52 | 1014.8 |
| 20260505204342 | 24 | 315 | 3.2 | 3.2 | 0.00 | 0.00 | 0.00 | 54 | 1014.8 |
| 20260505203845 | 25 | 180 | 1.6 | 1.6 | 0.00 | 0.00 | 0.00 | 52 | 1014.8 |
| 20260505191039 | 22 | 248 | 3.2 | 3.2 | 0.00 | 0.00 | 0.00 | 59 | 1015.6 |
| 20260505190534 | 21 | 0 | 1.6 | 1.6 | 0.00 | 0.00 | 0.00 | 59 | 1015.6 |
| 20260505185524 | 22 | 270 | 4.8 | 4.8 | 0.00 | 0.00 | 0.00 | 59 | 1015.7 |
| 20260505185017 | 21 | 158 | 1.6 | 1.6 | 0.00 | 0.00 | 0.00 | 60 | 1015.7 |
| 20260505184509 | 21 | 293 | 1.6 | 1.6 | 0.00 | 0.00 | 0.00 | 61 | 1015.8 |
| 20260505184006 | 21 | 0 | 1.6 | 1.6 | 0.00 | 0.00 | 0.00 | 63 | 1015.8 |
| 20260505183459 | 21 | 158 | 3.2 | 3.2 | 0.00 | 0.00 | 0.00 | 63 | 1015.8 |
| 20260505182444 | 21 | 225 | 3.2 | 3.2 | 0.00 | 0.00 | 0.00 | 62 | 1015.8 |
| 20260505181942 | 21 | 23 | 3.2 | 3.2 | 0.00 | 0.00 | 0.00 | 62 | 1015.8 |
| 20260505181434 | 20 | 113 | 1.6 | 1.6 | 0.00 | 0.00 | 0.00 | 62 | 1015.8 |
| 20260505180931 | 20 | 180 | 3.2 | 3.2 | 0.00 | 0.00 | 0.00 | 62 | 1015.9 |
| 20260505180425 | 20 | 293 | 1.6 | 1.6 | 0.00 | 0.00 | 0.00 | 63 | 1015.9 |
| 20260505175409 | 20 | 158 | 1.6 | 1.6 | 0.00 | 0.00 | 0.00 | 64 | 1016.0 |
| 20260505174906 | 20 | 135 | 3.2 | 3.2 | 0.00 | 0.00 | 0.00 | 63 | 1016.0 |
| 20260505174359 | 20 | 45 | 3.2 | 3.2 | 0.00 | 0.00 | 0.00 | 65 | 1016.0 |
| 20260505172841 | 19 | 0 | 0.0 | 0.0 | 0.00 | 0.00 | 0.00 | 66 | 1015.9 |
| 20260505172334 | 18 | 113 | 1.6 | 1.6 | 0.00 | 0.00 | 0.00 | 65 | 1016.1 |
| 20260505171829 | 18 | 113 | 3.2 | 3.2 | 0.00 | 0.00 | 0.00 | 66 | 1016.1 |
| 20260505171319 | 17 | 113 | 0.0 | 0.0 | 0.00 | 0.00 | 0.00 | 70 | 1016.2 |
| 20260505170815 | 16 | 68 | 0.0 | 0.0 | 0.00 | 0.00 | 0.00 | 71 | 1016.2 |
| 20260505165259 | 15 | 225 | 0.0 | 0.0 | 0.00 | 0.00 | 0.00 | 76 | 1016.4 |
| 20260505164751 | 16 | 248 | 0.0 | 0.0 | 0.00 | 0.00 | 0.00 | 76 | 1016.4 |
| 20260505164245 | 13 | 338 | 0.0 | 0.0 | 0.00 | 0.00 | 0.00 | 88 | 1016.4 |